Weather reports worldwide

Advertisment
Nikkaluokta, Sweden (2036): temperature & dewpoint: 04.07.2020 11:00:00 - 10.07.2020 11:00:00 (CEST)Nikkaluokta, Sweden (2036): wind speed & gusts: 04.07.2020 11:00:00 - 10.07.2020 11:00:00 (CEST)Nikkaluokta, Sweden (2036): wind direction: 04.07.2020 11:00:00 - 10.07.2020 11:00:00 (CEST)Nikkaluokta, Sweden (2036): reduced air pressure: 04.07.2020 11:00:00 - 10.07.2020 11:00:00 (CEST)Nikkaluokta, Sweden (2036): visibility: 04.07.2020 11:00:00 - 10.07.2020 11:00:00 (CEST)Nikkaluokta, Sweden (2036): precipitation: 04.07.2020 11:00:00 - 10.07.2020 11:00:00 (CEST)
Date & Time tt [°C] td [°C] ff [km/h] ff [kn] fx [km/h] fx [kn] dd ppp [hPa] vv [km] rr [mm]
10.07.2020 11:00:00 - - - - - - - - - -
10.07.2020 10:00:00 11,0 6,5 4 2 8 5 N 1005,2 50 0,0
10.07.2020 09:00:00 10,2 7,8 4 2 8 4 NNW 1005,5 50 0,0
10.07.2020 08:00:00 9,1 7,9 4 2 10 5 W 1006,0 50 0,0
10.07.2020 07:00:00 7,9 7,3 6 3 15 8 WSW 1006,5 49 0,6
10.07.2020 06:00:00 7,5 6,4 9 5 16 9 W 1006,8 18 0,4
10.07.2020 05:00:00 7,2 6,4 7 4 13 7 WSW 1007,1 16 1,6
10.07.2020 04:00:00 7,1 6,5 2 1 8 5 WSW 1007,4 10 2,5
10.07.2020 03:00:00 7,3 6,4 3 2 17 9 SSW 1007,3 9 2,6
10.07.2020 02:00:00 7,6 6,4 10 5 22 12 NW 1007,0 14 1,6
10.07.2020 01:00:00 7,8 6,6 7 4 16 8 WSW 1007,0 24 0,4
10.07.2020 00:00:00 8,3 6,3 7 4 19 10 WNW 1006,8 10 0,1
09.07.2020 23:00:00 8,4 6,9 10 5 21 11 NW 1006,7 49 0,3
09.07.2020 22:00:00 8,6 7,7 8 4 15 8 NW 1006,9 18 2,0
09.07.2020 21:00:00 9,1 8,3 10 6 16 9 NNW 1006,6 18 2,5
09.07.2020 20:00:00 9,4 8,3 4 2 13 7 NW 1006,6 3,2 7,2
09.07.2020 19:00:00 10,0 8,9 3 2 16 8 SSE 1006,3 9 1,0
09.07.2020 18:00:00 10,5 9,1 6 3 15 8 W 1006,0 2,4 6,1
09.07.2020 17:00:00 11,5 8,9 8 4 19 10 N 1005,9 4,9 1,3
09.07.2020 16:00:00 13,9 8,1 13 7 22 12 NNW 1005,2 41 0,0
09.07.2020 15:00:00 13,3 7,5 11 6 19 11 N 1005,4 50 0,0
09.07.2020 14:00:00 13,9 6,7 10 5 15 8 NNW 1005,3 46 0,0
09.07.2020 13:00:00 14,0 7,5 8 4 14 7 NNW 1005,2 41 0,0
09.07.2020 12:00:00 12,6 7,9 5 3 11 6 NNW 1005,7 50 0,0
09.07.2020 11:00:00 11,2 8,3 5 3 12 6 NNW 1006,3 50 0,0
09.07.2020 10:00:00 9,8 7,2 7 4 14 8 W 1006,6 50 0,0
09.07.2020 09:00:00 - - - - - - - - - -
09.07.2020 08:00:00 - - - - - - - - - -
09.07.2020 07:00:00 - - - - - - - - - -
09.07.2020 06:00:00 - - - - - - - - - -
09.07.2020 05:00:00 - - - - - - - - - -
09.07.2020 04:00:00 - - - - - - - - - -
09.07.2020 03:00:00 - - - - - - - - - -
09.07.2020 02:00:00 - - - - - - - - - -
09.07.2020 01:00:00 - - - - - - - - - -
09.07.2020 00:00:00 - - - - - - - - - -
08.07.2020 23:00:00 - - - - - - - - - -
08.07.2020 22:00:00 - - - - - - - - - -
08.07.2020 21:00:00 - - - - - - - - - -
08.07.2020 20:00:00 - - - - - - - - - -
08.07.2020 19:00:00 - - - - - - - - - -
08.07.2020 18:00:00 - - - - - - - - - -
08.07.2020 17:00:00 12,8 6,3 6 3 15 8 SW 1002,8 - 0,0
08.07.2020 16:00:00 13,0 6,6 8 4 15 8 E 1002,6 - 0,0
08.07.2020 15:00:00 12,7 5,8 3 2 10 5 ESE 1002,6 - 0,0
08.07.2020 14:00:00 14,1 5,5 6 3 14 8 E 1002,2 - 0,0
08.07.2020 13:00:00 11,1 5,6 3 2 10 6 E 1002,9 - 0,0
08.07.2020 12:00:00 11,1 4,8 7 4 11 6 E 1002,8 - 0,0
08.07.2020 11:00:00 10,5 6,2 3 2 7 4 E 1003,1 - 0,0
08.07.2020 10:00:00 8,7 5,6 4 2 6 4 E 1003,5 - 0,0
08.07.2020 09:00:00 8,6 5,9 2 1 5 3 S 1003,1 - 0,0
08.07.2020 08:00:00 8,2 6,3 3 2 9 5 ESE 1003,0 - 0,0
08.07.2020 07:00:00 8,8 5,9 4 2 - - WSW 1002,7 - 0,0
08.07.2020 06:00:00 8,6 6,0 2 1 8 5 WSW 1002,6 - 0,0
08.07.2020 05:00:00 8,2 5,3 4 2 9 5 ESE 1002,5 - 0,0
08.07.2020 04:00:00 8,4 5,7 5 3 10 6 E 1002,4 - 0,0
08.07.2020 03:00:00 7,5 5,8 3 1 6 4 WSW 1002,7 - 0,0
08.07.2020 02:00:00 7,5 5,0 3 2 9 5 NE 1002,5 - 0,0
08.07.2020 01:00:00 7,7 5,7 4 2 6 3 SSE 1002,4 - 0,0
08.07.2020 00:00:00 8,7 5,3 3 2 9 5 S 1001,8 - 0,0
07.07.2020 23:00:00 9,3 5,1 6 3 11 6 SSE 1001,3 - 0,0
07.07.2020 22:00:00 9,3 5,8 6 3 10 5 SE 1000,9 - 0,0
07.07.2020 21:00:00 10,2 6,3 4 2 7 4 SSE 1000,4 - 0,0
07.07.2020 20:00:00 10,9 6,6 4 2 12 6 SE 1000,0 - 0,0
07.07.2020 19:00:00 11,8 5,4 6 3 19 10 SE 999,5 - 0,0
07.07.2020 18:00:00 12,3 6,1 13 7 21 11 E 999,1 - 0,0
07.07.2020 17:00:00 12,9 5,8 9 5 23 12 E 998,7 - 0,0
07.07.2020 16:00:00 13,1 6,4 13 7 22 12 E 998,0 - 0,0
07.07.2020 15:00:00 14,0 3,7 3 2 12 7 NNE 997,2 - 0,0
07.07.2020 14:00:00 14,1 2,6 4 2 13 7 E 996,9 - 0,0
07.07.2020 13:00:00 14,0 4,0 5 3 - - NNW 996,7 - 0,0
07.07.2020 12:00:00 12,9 3,5 8 5 16 8 NNW 996,6 - 0,0
07.07.2020 11:00:00 12,5 3,7 3 2 11 6 ESE 996,2 - 0,0
07.07.2020 10:00:00 11,7 4,7 5 3 13 7 E 995,9 - 0,0
07.07.2020 09:00:00 11,0 5,7 3 2 10 5 E 995,4 - 0,0
07.07.2020 08:00:00 9,8 5,6 6 3 9 5 E 995,2 - 0,0
07.07.2020 07:00:00 7,5 5,6 3 2 6 3 SE 995,6 - 0,0
07.07.2020 06:00:00 5,8 5,2 3 1 8 4 S 995,6 - 0,0
07.07.2020 05:00:00 1,6 1,1 7 4 9 5 SW 996,1 - 0,0
07.07.2020 04:00:00 2,0 1,3 3 1 9 5 W 995,4 - 0,0
07.07.2020 03:00:00 2,2 1,2 4 2 10 6 WSW 994,9 - 0,0
07.07.2020 02:00:00 1,1 0,2 6 4 8 5 S 994,6 - 0,0
07.07.2020 01:00:00 2,1 1,1 5 3 8 4 S 993,7 - 0,0
07.07.2020 00:00:00 5,3 2,8 5 3 19 10 WSW 992,3 - 0,0
06.07.2020 23:00:00 10,3 3,4 5 3 21 11 NW 990,7 - 0,0
06.07.2020 22:00:00 11,8 3,8 12 7 27 14 NNW 990,0 - 0,0
06.07.2020 21:00:00 13,7 2,3 14 8 31 17 N 989,1 - 0,0
06.07.2020 20:00:00 13,9 3,1 16 8 30 16 N 988,5 - 0,0
06.07.2020 19:00:00 16,3 3,0 18 10 29 16 N 987,6 - 0,0
06.07.2020 18:00:00 17,0 4,3 7 4 23 12 ENE 987,1 - 0,0
06.07.2020 17:00:00 17,9 4,2 12 7 22 12 E 986,9 - 0,0
06.07.2020 16:00:00 15,9 5,5 8 4 - - E 987,1 - 0,0
06.07.2020 15:00:00 18,0 2,7 9 5 17 9 E 986,4 - 0,0
06.07.2020 14:00:00 16,4 1,7 9 5 18 10 E 986,9 - 0,0
06.07.2020 13:00:00 16,8 2,8 10 5 16 8 E 987,1 - 0,0
06.07.2020 12:00:00 16,1 1,8 8 4 13 7 E 987,4 - 0,0
06.07.2020 11:00:00 14,9 4,3 6 3 16 9 ENE 988,0 - 0,0
06.07.2020 10:00:00 13,2 1,5 4 2 7 4 N 988,5 - 0,0
06.07.2020 09:00:00 11,9 3,9 5 3 9 5 NE 989,3 - 0,0
06.07.2020 08:00:00 10,7 3,7 6 3 9 5 NE 990,0 - 0,0
06.07.2020 07:00:00 10,3 4,7 4 2 9 5 ENE 990,7 - 0,0
06.07.2020 06:00:00 9,2 4,4 4 2 10 6 SE 991,5 - 0,0
06.07.2020 05:00:00 8,0 4,2 6 4 13 7 ESE 992,4 - 0,0
06.07.2020 04:00:00 7,0 4,5 4 2 9 5 SE 993,4 - 0,0
06.07.2020 03:00:00 6,1 3,8 5 3 13 7 SE 994,1 - 0,0
06.07.2020 02:00:00 7,5 4,3 6 3 18 10 E 994,1 - 0,0
06.07.2020 01:00:00 8,2 4,0 7 4 14 7 E 994,1 - 0,0
06.07.2020 00:00:00 6,5 4,2 3 2 13 7 SE 994,7 - 0,0
05.07.2020 23:00:00 9,7 3,7 8 5 16 9 E 994,2 - 0,0
05.07.2020 22:00:00 10,2 3,2 6 4 22 12 E 994,0 - 0,0
05.07.2020 21:00:00 11,3 3,1 12 6 - - E 993,8 - 0,0
05.07.2020 20:00:00 12,6 2,4 10 5 21 12 E 993,6 - 0,0
05.07.2020 19:00:00 12,9 2,2 12 7 23 13 E 993,9 - 0,0
05.07.2020 18:00:00 13,4 3,5 14 7 27 14 E 994,2 - 0,0
05.07.2020 17:00:00 13,0 3,8 13 7 22 12 E 994,6 - 0,0
05.07.2020 16:00:00 13,4 0,1 5 3 15 8 E 994,7 - 0,0
05.07.2020 15:00:00 12,9 0,9 4 2 12 6 SE 995,0 - 0,0
05.07.2020 14:00:00 13,9 -0,6 6 3 17 9 NE 994,9 - 0,0
05.07.2020 13:00:00 14,0 -0,5 4 2 16 8 NW 995,1 - 0,0
05.07.2020 12:00:00 11,6 -0,6 5 3 18 10 NW 995,9 - 0,0
05.07.2020 11:00:00 12,9 1,2 9 5 19 10 NW 995,8 - 0,0
05.07.2020 10:00:00 11,1 0,5 9 5 19 10 NW 996,4 - 0,0
05.07.2020 09:00:00 10,7 1,0 9 5 20 11 NNE 996,7 - 0,0
05.07.2020 08:00:00 10,4 0,1 10 5 22 12 NNE 997,1 - 0,0
05.07.2020 07:00:00 10,6 2,2 12 6 20 11 N 997,3 - 0,0
05.07.2020 06:00:00 8,0 4,6 3 2 8 5 SW 998,4 - 0,0
05.07.2020 05:00:00 7,1 4,9 3 1 8 5 S 999,0 - 0,0
05.07.2020 04:00:00 6,7 4,4 5 3 8 4 SW 999,3 - 0,0
05.07.2020 03:00:00 6,9 3,5 4 2 - - SE 999,3 - 0,0
05.07.2020 02:00:00 7,7 3,4 6 4 13 7 E 999,3 - 0,0
05.07.2020 01:00:00 7,7 3,7 6 3 14 8 NE 999,4 - 0,0
05.07.2020 00:00:00 8,0 3,6 6 3 12 7 E 999,4 - 0,0
04.07.2020 23:00:00 8,3 3,8 5 3 14 8 E 999,5 - 0,0
04.07.2020 22:00:00 8,9 4,1 5 3 11 6 E 999,6 - 0,0
04.07.2020 21:00:00 9,3 3,9 5 3 14 7 ESE 999,6 - 0,0
04.07.2020 20:00:00 9,5 3,9 6 3 15 8 ESE 999,7 - 0,0
04.07.2020 19:00:00 9,7 4,5 8 5 16 9 ESE 999,9 - 0,0
04.07.2020 18:00:00 9,8 5,0 8 5 19 10 ESE 1000,0 - 0,0
04.07.2020 17:00:00 11,8 5,3 6 3 19 10 ENE 999,4 - 0,0
04.07.2020 16:00:00 11,1 3,9 7 4 12 7 E 999,6 - 0,0
04.07.2020 15:00:00 11,0 3,3 8 5 14 8 E 999,7 - 0,0
04.07.2020 14:00:00 11,3 3,8 9 5 14 7 E 999,5 - 0,0
04.07.2020 13:00:00 10,8 4,5 4 2 18 10 SW 999,8 - 0,0
04.07.2020 12:00:00 11,4 1,3 0 0 17 9 N 999,4 - 0,0
04.07.2020 11:00:00 11,7 3,3 12 7 24 13 NNW 999,5 - 0,0

tt = temperature
td = dewpoint
ff = wind speed
fx = gusts
dd = wind direction
ppp = reduced air pressure
vv = visibility
rr = precipitation

Next stations